Regional Weather Roundup
Issued by NWS

Home | Current Version | Previous Version | Graphics & Text | Print | Product List | Glossary On
Versions: 1 2 3 4 5 6 7 8 9 10 11 12 13 14 15 16 17 18 19 20 21 22 23 24 25 26 27 28 29 30 31 32 33 34 35 36 37 38 39 40 41 42 43 44 45 46 47 48 49 50
000
ASUS43 KOAX 230502
RWRNE

WEATHER ROUNDUP FOR NEBRASKA
NATIONAL WEATHER SERVICE OMAHA NE
1200 AM CDT WED APR 23 2014

NOTES: SATELLITE DATA IS BEING USED TO AUGMENT CLOUD COVER ABOVE
       12000 FEET.
       "FAIR" INDICATES FEW OR NO CLOUDS BELOW 12,000 FEET WITH NO
       SIGNIFICANT WEATHER AND/OR OBSTRUCTIONS TO VISIBILITY.

  * THESE STATIONS DO NOT REPORT WEATHER SUCH AS RAIN...SNOW OR FOG.

NEZ001>004-019>022-054>056-230600-
NEBRASKA PANHANDLE

CITY           SKY/WX    TMP DP  RH WIND       PRES   REMARKS
SCOTTSBLUFF    MOCLDY    61  45  55 E14       29.59F
ALLIANCE       MOCLDY    60  40  47 SE18      29.63F
CHADRON        CLOUDY    65  46  50 SE25G35   29.54F
KIMBALL        CLOUDY    55  36  49 S7        29.64F
SIDNEY         PTCLDY    63  38  39 S15       29.65F
$$

NEZ057>060-069>072-079>082-230600-
SOUTHWEST NEBRASKA

CITY           SKY/WX    TMP DP  RH WIND       PRES   REMARKS
NORTH PLATTE   PTCLDY    62  34  35 SE17G26   29.72F
IMPERIAL       MOCLDY    63  46  54 S23G38    29.70F
LEXINGTON      PTCLDY    61  33  34 SE18      29.79S
MCCOOK         MOCLDY    65  42  43 S24G41    29.73F
OGALLALA       MOCLDY    65  45  48 S24G36    29.67R
$$

NEZ005>010-023>029-035>040-094-230600-
NORTH CENTRAL NEBRASKA

CITY           SKY/WX    TMP DP  RH WIND       PRES   REMARKS
VALENTINE      CLOUDY    62  33  33 SE5       29.75R
AINSWORTH      CLOUDY    60  33  35 SE18G24   29.74F
BROKEN BOW     CLEAR     54  34  46 SE14G23   29.79F
O`NEILL        PTCLDY    55  29  36 SE14G20   29.83S
ORD            CLEAR     58  31  35 SE14G24   29.81F
THEDFORD       MOCLDY    63  31  30 SE23G31   29.73F
$$

NEZ041-046>049-061>064-073>077-083>087-230600-
SOUTH CENTRAL NEBRASKA

CITY           SKY/WX    TMP DP  RH WIND       PRES   REMARKS
GRAND ISLAND   CLEAR     58  32  37 SE21G30   29.87F
AURORA         CLEAR     57  33  40 SE17G23   29.88F
HASTINGS       CLEAR     58  31  35 SE13G22   29.86F
HEBRON         MOCLDY    59  32  36 SE13      29.92S
HOLDREGE       PTCLDY    60  32  34 SE22G29   29.81F
KEARNEY *      CLEAR     55  34  44 SE16G22   29.83F
YORK           CLOUDY    57  32  38 SE18      29.90S
$$

NEZ011>018-030>034-042>045-230600-
NORTHEAST NEBRASKA

CITY           SKY/WX    TMP DP  RH WIND       PRES   REMARKS
NORFOLK        CLEAR     56  33  42 SE16      29.89F
ALBION         CLEAR     57  30  35 SE17      29.88S
BLAIR          PTCLDY    57  32  38 E9        29.96F
COLUMBUS *     CLEAR     55  32  41 SE10      29.92S
FREMONT        CLEAR     59  31  35 E10G17    29.95F
TEKAMAH        PTCLDY    57  33  40 SE13      29.96F
$$

NEZ050>053-065>068-078-088>093-230600-
SOUTHEAST NEBRASKA

CITY           SKY/WX    TMP DP  RH WIND       PRES   REMARKS
LINCOLN        CLEAR     61  32  33 SE14      29.94F
OMAHA EPPLEY   MOCLDY    59  33  37 SE14      29.97F
BEATRICE       CLEAR     57  32  38 SE9       29.94F
FALLS CITY     MOCLDY    55  36  48 SE7       29.98F
NEBRASKA CITY  PTCLDY    59  33  37 SE9       29.97F
PLATTSMOUTH    MOCLDY    59  32  36 SE8       29.97F
$$

NEZ044-045-051>053-067-230600-
OMAHA AREA

CITY           SKY/WX    TMP DP  RH WIND       PRES   REMARKS
OMAHA EPPLEY   MOCLDY    59  33  37 SE14      29.97F
BLAIR          PTCLDY    57  32  38 E9        29.96F
FREMONT        CLEAR     59  31  35 E10G17    29.95F
MILLARD        PTCLDY    59  34  38 SE6       29.96F
OFFUTT AFB     MOCLDY    56  37  48 E12       29.97F
PLATTSMOUTH    MOCLDY    59  32  36 SE8       29.97F
WAHOO          FAIR      53  33  47 SE10      29.94F
$$



USA.gov is the U.S. government's official web portal to all federal, state and local government web resources and services.